Other Public Products
Issued by NWS Charleston, SC

Current Version | Previous Version | Text Only | Print | Product List | Glossary Off
Versions: 1 2 3 4 5 6 7 8 9 10 11 12 13 14 15 16 17 18 19 20 21 22 23 24 25 26 27 28 29 30 31 32 33 34 35 36 37 38 39 40 41 42 43 44 45 46 47 48 49 50

713
FPUS82 KCHS 291012
OPUCHS

TEST...KCHS/KSAV Gateway Observations...TEST
National Weather Service Charleston SC
600 AM EDT WED MAR 29 2017

NOTE: "fair" indicates few or no clouds below 12,000 feet with no
significant weather and/or obstructions to visibility.

SCZ050-WAZ558-NCZ071-TXZ119-213-PAZ071-DCZ001-FLZ074-172-MI076-
NYZ176-178-MAZ016-IL014-TNZ027-NJZ106-GAZ044-MD014-291100-

...Gateway Observations for Charleston International...

CITY           SKY/WX    TMP DP  RH WIND       PRES   REMARKS
Chas Airport   CLEAR     58  56  93 N6        29.95R
Seattle        LGT RAIN  46  45  96 SE10      30.02F
Charlotte      CLEAR     57  48  72 N3        30.02R
Dallas DFW     LGT RAIN  62  59  90 E3        29.67F
Dallas Love    TSTM      62  58  86 SE10      29.66F
Philladelphia  PTCLDY    48  40  73 N17       30.03R
Wash National  CLOUDY    58  52  80 N12       30.03R
Baltimore      CLOUDY    54  46  74 N6        30.03R
Miami          PTCLDY    73  64  73 CALM      29.99R
Detroit        CLEAR     35  30  82 NW3       30.25R
Newark         CLOUDY    45  41  86 N10       30.01R
Laguardia      CLOUDY    47  38  71 N14       30.00R
J F K          CLOUDY    46  41  82 N14       30.01R
Boston Logan   CLOUDY    38  37  97 N9        29.98R WCI  31
Ft. Lauderdale PTCLDY    73  65  75 CALM      29.98R
Chicago O`Hare FOG       35  33  92 NE6       30.22S VSB 1   WCI  30
Chicago Midway CLOUDY    36  35  96 NE9       30.22F FOG     WCI  29
Houston Bush   CLOUDY    75  66  73 S7        29.82R
Houston Hobby  MOCLDY    74  68  81 VRB6G16   29.78R
Nashville      CLEAR     52  50  93 CALM      30.04R
Atlanta        PTCLDY    61  54  77 CALM      30.00R

$$

GAZ044-118-TXZ119-213-NCZ071-DCZ001-MDZ014-506-PAZ021-071-NJZ106-
NYZ176-178-MAZ106-OHZ011-021-055-MIZ076-KYZ091-ILZ014-INZ047-
MNZ060-ONZ431-291100-

...Gateway Observations for Savannah International...

CITY           SKY/WX    TMP DP  RH WIND       PRES   REMARKS
Savannah Arpt  CLEAR     62  58  86 W5        29.96R
Atlanta        PTCLDY    61  54  77 CALM      30.00R
Charlotte      CLEAR     57  48  72 N3        30.02R
Dallas DFW     LGT RAIN  62  59  90 E3        29.67F
Houston Bush   CLOUDY    75  66  73 S7        29.82R
Wash National  CLOUDY    58  52  80 N12       30.03R
Wash Dulles    CLOUDY    57  52  83 N9        30.03R
Baltimore      CLOUDY    54  46  74 N6        30.03R
Philadelphia   PTCLDY    48  40  73 N17       30.03R
Newark         CLOUDY    45  41  86 N10       30.01R
Laguardia      CLOUDY    47  38  71 N14       30.00R
J F K          CLOUDY    46  41  82 N14       30.01R
Boston         CLOUDY    38  37  97 N9        29.98R WCI  31
Pittsburg      CLOUDY    45  41  86 N6        30.14R
Akron          CLOUDY    40  37  89 N6        30.18R FOG     WCI  36
Cleveland      CLOUDY    39  34  82 N5        30.23R WCI  36
Cincinnati     CLOUDY    47  43  86 NE14      30.14R
Columbus       CLOUDY    40  38  93 NE5       30.17S WCI  36
Detroit        CLEAR     35  30  82 NW3       30.25R
Chicago O`Hare FOG       35  33  92 NE6       30.22S VSB 1   WCI  30
Minneapolis    CLOUDY    45  30  55 SE6       30.19S
Indianapolis   CLOUDY    49  44  83 E8        30.14R
Toronto Canada CLEAR     34  28  80 N6        30.20R WCI  29

$$




USA.gov is the U.S. government's official web portal to all federal, state and local government web resources and services.